Location: Unspecified
(0.0000°N, 0.0000°E)
Time: 14:06:48
(UTC+02:00)

SJ-6B - Visible Passes

Search period start: 27 September 2016 00:00
Search period end: 07 October 2016 00:00
Orbit: 513 x 584 km, 97.8° (Epoch: 26 September)

Date Brightness Start Highest point End Pass type
(mag) Time Alt. Az. Time Alt. Az. Time Alt. Az.
27 Sep 3.1 20:40:47 10° SSE 20:44:23 40° ENE 20:48:02 10° N visible
28 Sep 3.4 20:36:14 10° SE 20:39:43 33° ENE 20:43:15 10° NNE visible
29 Sep 3.6 20:31:43 10° SE 20:35:04 28° ENE 20:38:27 10° NNE visible
30 Sep 3.8 20:27:14 10° SE 20:30:24 24° ENE 20:33:36 10° NNE visible
30 Sep 6.2 22:04:27 10° WSW 22:04:50 10° WSW 22:05:13 10° W visible
01 Oct 4.0 20:22:48 10° SE 20:25:45 21° ENE 20:28:42 10° NNE visible
01 Oct 6.1 21:58:34 10° SW 22:00:10 12° WSW 22:01:46 10° WNW visible
02 Oct 4.2 20:18:25 10° ESE 20:21:05 18° ENE 20:23:45 10° NE visible
02 Oct 5.9 21:53:19 10° SW 21:55:30 15° WSW 21:57:42 10° WNW visible
03 Oct 4.4 20:14:07 10° ESE 20:16:25 15° ENE 20:18:44 10° NE visible
03 Oct 5.6 21:48:15 10° SW 21:50:50 17° WSW 21:53:27 10° WNW visible
04 Oct 4.6 20:09:57 10° ESE 20:11:46 13° ENE 20:13:34 10° NE visible
04 Oct 5.4 21:43:15 10° SSW 21:46:10 20° WSW 21:49:07 10° NW visible
05 Oct 5.1 21:38:19 10° SSW 21:41:30 24° WSW 21:44:43 10° NW visible
06 Oct 4.8 21:33:26 10° SSW 21:36:49 28° WSW 21:40:16 10° NW visible
